Weather History for KBML - August, 2014

Change the Weather History Date:

Thursday, August 28, 2014

  Actual Average Record
Temperature  
Mean Temperature 59 °F -  
Max Temperature 70 °F 73 °F 88 °F (2013)
Min Temperature 48 °F 45 °F 37 °F (2003)
Degree Days  
Heating Degree Days 6    
Growing Degree Days 9 (Base 50)    
Moisture  
Dew Point 51 °F    
Average Humidity 80    
Maximum Humidity 100    
Minimum Humidity 46    
Precipitation  
Precipitation 0.00 in - - ()
Sea Level Pressure  
Sea Level Pressure 29.90 in    
Wind  
Wind Speed 3 mph (NW)    
Max Wind Speed 14 mph    
Max Gust Speed 23 mph    
Visibility 8 miles    
Events Fog , Rain    
Averages and records for this station are not official NWS values.
T = Trace of Precipitation, MM = Missing Value Source: NWS Daily Summary

Daily Weather History Graph

Daily Weather History Graph

Search for Another Location

Airport or City:

Trip Planner

Search our weather history database for the weather conditions in past years. The results will help you decide how hot, cold, wet, or windy it might be!

Date:

Astronomy

Aug. 28, 2014 Rise Set
Actual Time 6:02 AM EDT 7:28 PM EDT
Civil Twilight 5:32 AM EDT 7:58 PM EDT
Nautical Twilight 4:55 AM EDT 8:35 PM EDT
Astronomical Twilight 4:16 AM EDT 9:14 PM EDT
Moon 9:00 AM EDT 8:41 PM EDT
Length of Visible Light 14h 26m
Length of Day
13h 25m
Waxing Crescent, 8% of the Moon is Illuminated
Aug 28
Waxing Crescent
Sep 2
First Quarter
Sep 8
Full
Sep 15
Last Quarter
Sep 24
New

Hourly Weather History & Observations

Time (EDT) Temp. Dew Point Humidity Pressure Visibility Wind Dir Wind Speed Gust Speed Precip Events Conditions
12:52 AM 63.0 °F 59.0 °F 87% 29.89 in 10.0 mi NNW 4.6 mph - N/A   Partly Cloudy
1:52 AM 61.0 °F 57.9 °F 90% 29.88 in 10.0 mi North 4.6 mph - N/A   Scattered Clouds
2:52 AM 59.0 °F 57.0 °F 93% 29.86 in 10.0 mi Calm Calm - N/A   Partly Cloudy
3:52 AM 54.0 °F 54.0 °F 100% 29.86 in 10.0 mi Calm Calm - N/A   Scattered Clouds
4:52 AM 50.0 °F 50.0 °F 100% 29.86 in 10.0 mi Calm Calm - N/A   Clear
5:39 AM 50.0 °F 50.0 °F 100% 29.87 in 10.0 mi Calm Calm - N/A   Partly Cloudy
5:52 AM 50.0 °F 48.9 °F 96% 29.87 in 4.0 mi Calm Calm - N/A   Scattered Clouds
6:03 AM 48.9 °F 48.0 °F 97% 29.87 in 1.8 mi Calm Calm - N/A   Scattered Clouds
6:10 AM 48.0 °F 46.9 °F 96% 29.87 in 0.8 mi Calm Calm - N/A   Mostly Cloudy
6:18 AM 48.9 °F 48.0 °F 97% 29.88 in 0.2 mi Calm Calm - N/A Fog Fog
6:24 AM 51.1 °F 50.0 °F 96% 29.88 in 0.5 mi Calm Calm - N/A Fog Fog
6:27 AM 51.1 °F 51.1 °F 100% 29.88 in 3.0 mi Calm Calm - N/A   Mostly Cloudy
6:38 AM 53.1 °F 52.0 °F 96% 29.88 in 10.0 mi Calm Calm - N/A   Overcast
6:52 AM 53.1 °F 53.1 °F 100% 29.88 in 8.0 mi Calm Calm - N/A   Mostly Cloudy
7:52 AM 59.0 °F 57.0 °F 93% 29.89 in 10.0 mi Calm Calm - N/A   Overcast
8:59 AM 64.0 °F 57.0 °F 78% 29.89 in 10.0 mi Variable 4.6 mph - N/A   Mostly Cloudy
9:25 AM 64.9 °F 55.9 °F 73% 29.89 in 10.0 mi Variable 6.9 mph - N/A   Mostly Cloudy
9:47 AM 64.4 °F 55.4 °F 73% 29.89 in 10.0 mi NW 4.6 mph - 0.00 in Rain Light Rain
9:52 AM 63.0 °F 55.9 °F 78% 29.88 in 10.0 mi WNW 3.5 mph - 0.00 in Rain Light Rain
11:52 AM 66.0 °F 50.0 °F 56% 29.86 in 10.0 mi NNW 9.2 mph - N/A   Overcast
12:52 PM 68.0 °F 48.0 °F 49% 29.86 in 10.0 mi NNW 13.8 mph 18.4 mph N/A   Mostly Cloudy
1:52 PM 70.0 °F 48.0 °F 46% 29.86 in 10.0 mi Variable 5.8 mph 17.3 mph N/A   Scattered Clouds
2:52 PM 66.9 °F 46.0 °F 47% 29.86 in 10.0 mi NW 10.4 mph 20.7 mph N/A   Overcast
3:52 PM 64.9 °F 46.9 °F 52% 29.88 in 10.0 mi WNW 8.1 mph 23.0 mph N/A   Overcast
4:52 PM 64.0 °F 48.0 °F 56% 29.90 in 10.0 mi NNW 10.4 mph 23.0 mph N/A   Overcast
5:52 PM 63.0 °F 48.0 °F 58% 29.93 in 10.0 mi NW 11.5 mph 19.6 mph N/A   Overcast
6:52 PM 62.1 °F 48.0 °F 60% 29.94 in 10.0 mi NW 4.6 mph - N/A   Overcast
7:52 PM 60.1 °F 48.9 °F 67% 29.96 in 10.0 mi NW 5.8 mph - N/A   Overcast
8:52 PM 59.0 °F 48.9 °F 69% 29.98 in 10.0 mi Calm Calm - N/A   Overcast
9:52 PM 55.0 °F 50.0 °F 83% 30.01 in 10.0 mi Calm Calm - N/A   Mostly Cloudy
10:52 PM 55.0 °F 51.1 °F 86% 30.01 in 10.0 mi Calm Calm - N/A   Overcast
11:52 PM 52.0 °F 50.0 °F 93% 30.02 in 10.0 mi Calm Calm - N/A   Mostly Cloudy